Location: Peterborough
(44.3000°N, 78.3333°W)
Time: 02:16:17
(UTC-04:00)

ISS - Visible Passes

Search period start: 18 July 2018 00:00
Search period end: 28 July 2018 00:00
Orbit: 402 x 408 km, 51.6° (Epoch: 18 July)

Date Brightness Start Highest point End Pass type
(mag) Time Alt. Az. Time Alt. Az. Time Alt. Az.
18 Jul -2.0 01:00:29 31° NNW 01:00:47 31° NNW 01:03:47 10° NE visible
18 Jul -1.2 02:35:17 10° NW 02:37:56 22° N 02:40:37 10° ENE visible
18 Jul -2.5 04:11:50 10° NW 04:15:00 42° NNE 04:18:10 10° E visible
18 Jul -2.4 22:29:13 10° SSW 22:35:08 10° ENE 22:30:44 21° S visible
19 Jul -2.7 00:07:07 26° W 00:08:33 43° NNW 00:11:44 10° NE visible
19 Jul -1.2 01:42:57 10° WNW 01:45:37 22° N 01:48:17 10° NE visible
19 Jul -1.8 03:19:47 10° NW 03:22:46 31° NNE 03:25:46 10° E visible
19 Jul -3.8 04:56:10 10° WNW 04:59:26 58° SW 05:02:40 10° SE visible
19 Jul -2.3 21:37:57 10° S 21:40:12 17° SE 21:42:28 10° E visible
19 Jul -3.6 23:13:07 10° WSW 23:16:23 68° NNW 23:19:40 10° NE visible
20 Jul -1.4 00:50:32 10° WNW 00:53:17 24° N 00:56:03 10° NE visible
20 Jul -1.5 02:27:40 10° NW 02:30:29 25° N 02:33:18 10° ENE visible
20 Jul -3.8 04:04:02 10° WNW 04:07:21 80° NNE 04:10:38 10° ESE visible
20 Jul -4.0 22:21:00 10° SW 22:24:15 70° SE 22:27:31 10° ENE visible
20 Jul -1.7 23:58:03 10° WNW 00:00:58 29° NNW 00:03:54 10° NE visible
21 Jul -1.3 01:35:28 10° NW 01:38:09 22° N 01:40:50 10° ENE visible
21 Jul -2.9 03:11:57 10° NW 03:15:10 49° NNE 03:18:23 10° ESE visible
21 Jul -2.8 04:48:42 10° W 04:51:30 26° SW 04:54:18 10° SSE visible
21 Jul -3.3 21:29:08 10° SSW 21:32:12 38° SE 21:35:16 10° ENE visible
21 Jul -2.3 23:05:35 10° W 23:08:41 38° NNW 23:11:48 10° NE visible
22 Jul -1.2 00:43:09 10° NW 00:45:47 22° N 00:48:26 10° NE visible
22 Jul -2.1 02:19:51 10° NW 02:22:55 34° NNE 02:25:58 10° E visible
22 Jul -3.6 03:56:19 10° WNW 03:59:30 46° SW 04:02:39 10° SE visible
22 Jul -3.1 22:13:13 10° WSW 22:16:27 57° NNW 22:19:42 10° NE visible
22 Jul -1.3 23:50:43 10° WNW 23:53:25 23° N 23:56:08 10° NE visible
23 Jul -1.7 01:27:44 10° NW 01:30:37 27° NNE 01:30:48 27° NNE visible
23 Jul -3.9 21:21:00 10° WSW 21:24:16 86° SSE 21:27:34 10° ENE visible
23 Jul -1.6 22:58:12 10° WNW 23:01:03 27° NNW 23:03:55 10° NE visible
24 Jul -1.4 00:35:31 10° NW 00:38:15 23° N 00:39:23 19° NE visible
24 Jul -0.8 02:11:56 10° NW 02:11:58 10° NW 02:11:58 10° NW visible
24 Jul -2.0 22:05:41 10° W 22:08:43 34° NNW 22:11:46 10° NE visible
24 Jul -1.3 23:43:13 10° NW 23:45:51 22° N 23:48:26 10° NE visible
25 Jul -1.3 01:19:49 10° NW 01:21:02 19° NW 01:21:02 19° NW visible
25 Jul -2.7 21:13:14 10° W 21:16:25 48° NNW 21:19:37 10° NE visible
25 Jul -1.3 22:50:46 10° WNW 22:53:26 22° N 22:56:07 10° NE visible
26 Jul -1.8 00:27:40 10° NW 00:30:16 28° N 00:30:16 28° N visible
26 Jul -1.5 21:58:14 10° WNW 22:01:02 25° N 22:03:50 10° NE visible
26 Jul -1.6 23:35:27 10° NW 23:38:13 24° N 23:39:34 19° NE visible
27 Jul -0.8 01:11:50 10° NW 01:12:11 12° NW 01:12:11 12° NW visible
27 Jul -1.4 22:43:09 10° NW 22:45:47 22° N 22:48:27 10° ENE visible
